Great Bend, KS

9:11 PM CST on December 10, 2017 (GMT -0600)
Great Bend Municipal

Weather History for KGBD - June, 2013

Change the Weather History Date:

Thursday, June 27, 2013

  Actual Average Record
Temperature  
Mean Temperature 89 °F -  
Max Temperature 107 °F 92 °F 111 °F (1980)
Min Temperature 71 °F 65 °F 50 °F (1968)
Cooling Degree Days 24    
Growing Degree Days 39 (Base 50)    
Moisture  
Dew Point 68 °F    
Average Humidity 64    
Maximum Humidity 88    
Minimum Humidity 24    
Precipitation  
Precipitation 0.12 in - - ()
Sea Level Pressure  
Sea Level Pressure 29.93 in    
Wind  
Wind Speed 10 mph (South)    
Max Wind Speed 29 mph    
Max Gust Speed 43 mph    
Visibility 10 miles    
Events Thunderstorm    
Averages and records for this station are not official NWS values.
T = Trace of Precipitation, MM = Missing Value Source: NWS Daily Summary

Daily Weather History Graph

Daily Weather History Graph

Search for Another Location

Airport or City:

Trip Planner

Search our weather history database for the weather conditions in past years. The results will help you decide how hot, cold, wet, or windy it might be!

Date:

Astronomy

Jun. 27, 2013 Rise Set
Actual Time 6:13 AM CDT 9:03 PM CDT
Civil Twilight 5:42 AM CDT 9:34 PM CDT
Nautical Twilight 5:02 AM CDT 10:14 PM CDT
Astronomical Twilight 4:17 AM CDT 10:59 PM CDT
Moon No Moon Rise 11:12 AM CDT (6/27)
Length of Visible Light 15h 52m
Length of Day
14h 49m
Waning Gibbous, 76% of the Moon is Illuminated
Jun 27
Waning Gibbous
Jun 29
Last Quarter
Jul 8
New
Jul 15
First Quarter
Jul 22
Full

Hourly Weather History & Observations

Time (CDT) Temp. Heat Index Dew Point Humidity Pressure Visibility Wind Dir Wind Speed Gust Speed Precip Events Conditions
12:15 AM 84.2 °F 87.3 °F 68.0 °F 58% 29.92 in 10.0 mi South 10.4 mph - N/A   Clear
12:35 AM 84.2 °F 88.4 °F 69.8 °F 62% 29.92 in 10.0 mi South 12.7 mph - N/A   Clear
12:55 AM 84.2 °F 88.4 °F 69.8 °F 62% 29.92 in 10.0 mi South 12.7 mph - N/A   Clear
1:15 AM 82.4 °F 86.3 °F 69.8 °F 66% 29.92 in 10.0 mi South 11.5 mph - N/A   Clear
1:35 AM 82.4 °F 86.3 °F 69.8 °F 66% 29.92 in 10.0 mi South 9.2 mph - N/A   Clear
1:55 AM 80.6 °F 83.9 °F 69.8 °F 70% 29.92 in 10.0 mi South 10.4 mph - N/A   Clear
2:15 AM 80.6 °F 83.9 °F 69.8 °F 70% 29.92 in 10.0 mi South 9.2 mph - N/A   Clear
2:35 AM 78.8 °F - 69.8 °F 74% 29.92 in 10.0 mi SSW 9.2 mph - N/A   Clear
2:55 AM 78.8 °F - 69.8 °F 74% 29.92 in 10.0 mi South 9.2 mph - N/A   Clear
3:15 AM 78.8 °F - 69.8 °F 74% 29.92 in 10.0 mi SSW 9.2 mph - N/A   Clear
3:35 AM 77.0 °F - 69.8 °F 78% 29.91 in 10.0 mi SSW 10.4 mph - N/A   Clear
3:55 AM 75.2 °F - 69.8 °F 83% 29.91 in 10.0 mi SSW 8.1 mph - N/A   Clear
4:15 AM 77.0 °F - 69.8 °F 78% 29.92 in 10.0 mi SSW 6.9 mph - N/A   Clear
4:35 AM 75.2 °F - 69.8 °F 83% 29.92 in 10.0 mi SSW 8.1 mph - N/A   Clear
4:55 AM 73.4 °F - 68.0 °F 83% 29.92 in 10.0 mi SSW 6.9 mph - N/A   Clear
5:15 AM 73.4 °F - 68.0 °F 83% 29.92 in 10.0 mi SSW 5.8 mph - N/A   Clear
5:35 AM 73.4 °F - 68.0 °F 83% 29.92 in 10.0 mi South 6.9 mph - N/A   Clear
5:55 AM 71.6 °F - 66.2 °F 83% 29.92 in 10.0 mi South 5.8 mph - N/A   Clear
6:15 AM 71.6 °F - 66.2 °F 83% 29.92 in 8.0 mi South 4.6 mph - N/A   Clear
6:35 AM 71.6 °F - 66.2 °F 83% 29.92 in 7.0 mi South 5.8 mph - N/A   Clear
6:55 AM 71.6 °F - 66.2 °F 83% 29.92 in 8.0 mi Calm Calm - N/A   Clear
7:15 AM 73.4 °F - 68.0 °F 83% 29.93 in 9.0 mi SW 5.8 mph - N/A   Clear
7:35 AM 73.4 °F - 69.8 °F 88% 29.93 in 10.0 mi SSW 4.6 mph - N/A   Clear
7:55 AM 75.2 °F - 69.8 °F 83% 29.94 in 9.0 mi SSW 5.8 mph - N/A   Clear
8:15 AM 78.8 °F - 69.8 °F 74% 29.93 in 10.0 mi SSW 8.1 mph - N/A   Clear
8:35 AM 80.6 °F 83.9 °F 69.8 °F 70% 29.94 in 10.0 mi SSW 9.2 mph - N/A   Clear
8:55 AM 82.4 °F 87.2 °F 71.6 °F 70% 29.94 in 10.0 mi SSW 9.2 mph - N/A   Clear
9:15 AM 84.2 °F 89.6 °F 71.6 °F 66% 29.94 in 10.0 mi SW 11.5 mph - N/A   Clear
9:35 AM 87.8 °F 93.8 °F 71.6 °F 58% 29.94 in 10.0 mi SW 11.5 mph 17.3 mph N/A   Clear
9:55 AM 89.6 °F 94.7 °F 69.8 °F 52% 29.94 in 10.0 mi SW 11.5 mph - N/A   Clear
10:15 AM 91.4 °F 96.8 °F 69.8 °F 49% 29.94 in 10.0 mi SW 6.9 mph - N/A   Clear
10:35 AM 93.2 °F 98.8 °F 69.8 °F 46% 29.93 in 10.0 mi South 8.1 mph - N/A   Clear
10:55 AM 96.8 °F 103.1 °F 69.8 °F 41% 29.93 in 10.0 mi SW 10.4 mph - N/A   Clear
11:15 AM 95.0 °F 99.5 °F 68.0 °F 41% 29.93 in 10.0 mi SSW 8.1 mph - N/A   Clear
11:35 AM 96.8 °F 103.1 °F 69.8 °F 41% 29.93 in 10.0 mi South 9.2 mph - N/A   Clear
11:55 AM 98.6 °F 105.5 °F 69.8 °F 39% 29.92 in 10.0 mi SW 9.2 mph - N/A   Clear
12:15 PM 102.2 °F 106.9 °F 66.2 °F 31% 29.92 in 10.0 mi SSW 8.1 mph 16.1 mph N/A   Clear
12:35 PM 100.4 °F 104.9 °F 66.2 °F 33% 29.92 in 10.0 mi SSW 8.1 mph - N/A   Clear
12:55 PM 102.2 °F 105.5 °F 64.4 °F 29% 29.91 in 10.0 mi WSW 12.7 mph 16.1 mph N/A   Clear
1:15 PM 102.2 °F 105.5 °F 64.4 °F 29% 29.91 in 10.0 mi SW 8.1 mph 20.7 mph N/A   Clear
1:35 PM 104.0 °F 107.4 °F 64.4 °F 27% 29.90 in 10.0 mi South 13.8 mph - N/A   Clear
1:55 PM 104.0 °F 107.4 °F 64.4 °F 27% 29.90 in 10.0 mi SSW 10.4 mph 19.6 mph N/A   Clear
2:15 PM 105.8 °F 109.8 °F 64.4 °F 26% 29.89 in 10.0 mi SSW 13.8 mph 20.7 mph N/A   Clear
2:35 PM 105.8 °F 108.3 °F 62.6 °F 24% 29.88 in 10.0 mi South 12.7 mph 18.4 mph N/A   Clear
2:55 PM 107.6 °F 112.3 °F 64.4 °F 25% 29.87 in 10.0 mi South 13.8 mph 20.7 mph N/A   Clear
3:15 PM 107.6 °F 112.3 °F 64.4 °F 25% 29.86 in 10.0 mi South 16.1 mph 20.7 mph N/A   Clear
3:35 PM 107.6 °F 113.2 °F 66.2 °F 26% 29.84 in 10.0 mi South 17.3 mph 20.7 mph N/A   Clear
3:55 PM 107.6 °F 112.3 °F 64.4 °F 25% 29.81 in 10.0 mi SW 18.4 mph - N/A Thunderstorm Thunderstorm
4:15 PM 105.8 °F 109.8 °F 64.4 °F 26% 29.78 in 10.0 mi SSW 19.6 mph 23.0 mph N/A Thunderstorm Clear
4:35 PM 102.2 °F 105.5 °F 64.4 °F 29% 29.77 in 10.0 mi SSW 19.6 mph 24.2 mph N/A Thunderstorm Thunderstorm
4:55 PM 84.2 °F 85.0 °F 62.6 °F 48% 29.92 in 9.0 mi NNW 28.8 mph 42.6 mph 0.02 in Thunderstorm Thunderstorm
5:15 PM 75.2 °F - 64.4 °F 69% 29.91 in 10.0 mi ESE 13.8 mph 25.3 mph 0.06 in Thunderstorm Thunderstorm
5:35 PM 75.2 °F - 66.2 °F 73% 29.89 in 10.0 mi SSE 12.7 mph 21.9 mph 0.06 in Thunderstorm Thunderstorm
5:55 PM 73.4 °F - 66.2 °F 78% 29.93 in 10.0 mi East 12.7 mph 36.8 mph 0.06 in Thunderstorm Thunderstorm
6:15 PM 73.4 °F - 66.2 °F 78% 29.92 in 10.0 mi East 5.8 mph - 0.03 in Thunderstorm Mostly Cloudy
6:35 PM 73.4 °F - 68.0 °F 83% 29.91 in 10.0 mi SW 8.1 mph - 0.03 in Thunderstorm Thunderstorm
6:55 PM 73.4 °F - 68.0 °F 83% 29.86 in 10.0 mi WSW 8.1 mph - 0.04 in   Partly Cloudy
7:15 PM 73.4 °F - 68.0 °F 83% 29.85 in 10.0 mi Calm Calm - N/A   Clear
7:35 PM 73.4 °F - 68.0 °F 83% 29.89 in 10.0 mi ESE 5.8 mph - N/A   Clear
7:55 PM 73.4 °F - 68.0 °F 83% 29.93 in 10.0 mi SE 8.1 mph - N/A   Clear
8:15 PM 73.4 °F - 68.0 °F 83% 29.98 in 10.0 mi NE 16.1 mph 19.6 mph N/A   Clear
8:35 PM 73.4 °F - 68.0 °F 83% 29.97 in 10.0 mi NE 13.8 mph - N/A   Clear
8:55 PM 73.4 °F - 68.0 °F 83% 29.97 in 10.0 mi ENE 6.9 mph - N/A   Clear
9:15 PM 73.4 °F - 68.0 °F 83% 29.97 in 10.0 mi NE 5.8 mph - N/A   Clear
9:35 PM 73.4 °F - 66.2 °F 78% 29.99 in 10.0 mi NNE 5.8 mph - N/A   Clear
9:55 PM 73.4 °F - 66.2 °F 78% 30.02 in 10.0 mi NE 6.9 mph - N/A   Clear
10:15 PM 71.6 °F - 66.2 °F 83% 30.04 in 10.0 mi NE 9.2 mph - N/A   Clear
10:35 PM 71.6 °F - 66.2 °F 83% 30.06 in 10.0 mi NE 10.4 mph - N/A   Clear
10:55 PM 71.6 °F - 66.2 °F 83% 30.07 in 10.0 mi NNE 8.1 mph - N/A   Clear
11:15 PM 71.6 °F - 66.2 °F 83% 30.07 in 10.0 mi NNE 6.9 mph - N/A   Clear
11:35 PM 71.6 °F - 66.2 °F 83% 30.07 in 10.0 mi NNE 8.1 mph - N/A   Clear
11:55 PM 71.6 °F - 68.0 °F 88% 30.07 in 10.0 mi North 6.9 mph - N/A   Clear